Weather History for Osijek - Cepin, Croatia

Change the Weather History Date:

Thursday, November 22, 2012

  Actual Average Record
Temperature  
Mean Temperature 46 °F -  
Max Temperature 48 °F - - ()
Min Temperature 44 °F - - ()
Degree Days  
Heating Degree Days 19    
Moisture  
Dew Point 44 °F    
Average Humidity 90    
Maximum Humidity 93    
Minimum Humidity 87    
Precipitation  
Precipitation 0.00 in - - ()
Sea Level Pressure  
Sea Level Pressure 30.26 in    
Wind  
Wind Speed 3 mph ()    
Max Wind Speed 7 mph    
Max Gust Speed -    
Visibility 3.5 miles    
Events      
T = Trace of Precipitation, MM = Missing Value Source: Averaged Metar Reports

Daily Weather History Graph

Daily Weather History Graph

Search for Another Location

Airport:

Trip Planner

Search our weather history database for the weather conditions in past years. The results will help you decide how hot, cold, wet, or windy it might be!

Date:

Astronomy

Nov. 22, 2012 Rise Set
Actual Time 6:53 AM CET 4:08 PM CET
Civil Twilight 6:20 AM CET 4:40 PM CET
Nautical Twilight 5:44 AM CET 5:17 PM CET
Astronomical Twilight 5:09 AM CET 5:52 PM CET
Moon 12:59 PM CET (11/22) 12:39 AM CET (11/22)
Length of Visible Light 10h 20m
Length of Day
9h 14m
Waxing Gibbous, 69% of the Moon is Illuminated
Nov 22
Waxing Gibbous
Nov 28
Full
Dec 6
Last Quarter
Dec 13
New
Dec 20
First Quarter

Hourly Weather History & Observations

Time (CET) Temp. Windchill Dew Point Humidity Pressure Visibility Wind Dir Wind Speed Gust Speed Precip Events Conditions
12:00 AM 48.2 °F - 46.4 °F 93% 30.21 in - East 6.9 mph - N/A   Clear
12:30 AM 48.2 °F - 44.6 °F 87% 30.21 in - East 5.8 mph - N/A   Clear
1:00 AM 46.4 °F 43.5 °F 44.6 °F 93% 30.21 in - ESE 5.8 mph - N/A   Clear
1:30 AM 46.4 °F 42.9 °F 44.6 °F 93% 30.21 in - East 6.9 mph - N/A   Clear
2:00 AM 46.4 °F 44.3 °F 44.6 °F 93% 30.21 in - ESE 4.6 mph - N/A   Clear
2:30 AM 46.4 °F - 44.6 °F 93% 30.21 in - East 2.3 mph - N/A   Clear
3:00 AM 46.4 °F 45.2 °F 44.6 °F 93% 30.21 in - East 3.5 mph - N/A   Clear
3:30 AM 44.6 °F 42.2 °F 42.8 °F 93% 30.21 in - East 4.6 mph - N/A   Clear
4:00 AM 44.6 °F 43.1 °F 42.8 °F 93% 30.21 in - ESE 3.5 mph - N/A   Clear
4:30 AM 44.6 °F - 42.8 °F 93% 30.24 in - Variable 2.3 mph - N/A   Clear
5:00 AM 44.6 °F 42.2 °F 42.8 °F 93% 30.24 in - South 4.6 mph - N/A   Clear
5:30 AM 44.6 °F 42.2 °F 42.8 °F 93% 30.24 in - South 4.6 mph - N/A   Clear
6:00 AM 44.6 °F 42.2 °F 41.0 °F 87% 30.24 in - SSE 4.6 mph - N/A   Clear
6:30 AM 44.6 °F 43.1 °F 41.0 °F 87% 30.24 in - South 3.5 mph - N/A   Clear
7:00 AM 44.6 °F - 41.0 °F 87% 30.24 in - South 2.3 mph - N/A   Clear
7:30 AM 44.6 °F 43.1 °F 41.0 °F 87% 30.27 in - South 3.5 mph - N/A   Clear
8:00 AM 44.6 °F 42.2 °F 41.0 °F 87% 30.27 in - South 4.6 mph - N/A   Clear
8:30 AM 44.6 °F 40.7 °F 41.0 °F 87% 30.27 in - SSE 6.9 mph - N/A   Clear
9:00 AM 44.6 °F 41.4 °F 41.0 °F 87% 30.30 in - SSE 5.8 mph - N/A   Clear
9:30 AM 44.6 °F 42.2 °F 41.0 °F 87% 30.30 in - SSE 4.6 mph - N/A   Clear
10:00 AM 46.4 °F 44.3 °F 42.8 °F 87% 30.30 in - SSE 4.6 mph - N/A   Clear
10:30 AM 46.4 °F 44.3 °F 42.8 °F 87% 30.30 in - SSE 4.6 mph - N/A   Clear
11:00 AM 46.4 °F 44.3 °F 42.8 °F 87% 30.30 in - SE 4.6 mph - N/A   Clear
11:30 AM 46.4 °F - 42.8 °F 87% 30.30 in - SSE 1.2 mph - N/A   Clear
12:00 PM 46.4 °F - 42.8 °F 87% 30.30 in - Calm Calm - N/A   Clear
12:30 PM 46.4 °F - 42.8 °F 87% 30.30 in - Calm Calm - N/A   Clear
1:00 PM 46.4 °F - 42.8 °F 87% 30.27 in 6.2 mi Calm Calm - N/A   Scattered Clouds
1:30 PM 46.4 °F - 42.8 °F 87% 30.27 in 6.2 mi Calm Calm - N/A   Scattered Clouds
2:00 PM 48.2 °F - 44.6 °F 87% 30.27 in 6.2 mi Calm Calm - N/A   Partly Cloudy
2:30 PM 48.2 °F - 44.6 °F 87% 30.27 in 6.2 mi Calm Calm - N/A   Partly Cloudy
3:00 PM 48.2 °F - 44.6 °F 87% 30.27 in 6.2 mi Calm Calm - N/A   Partly Cloudy
3:30 PM 48.2 °F - 44.6 °F 87% 30.27 in 6.2 mi East 2.3 mph - N/A   Partly Cloudy
4:00 PM 46.4 °F - 44.6 °F 93% 30.27 in 1.9 mi ESE 1.2 mph - N/A   Scattered Clouds
4:30 PM 46.4 °F - 44.6 °F 93% 30.30 in 1.9 mi SE 2.3 mph - N/A   Scattered Clouds
5:00 PM 46.4 °F - 44.6 °F 93% 30.30 in 1.9 mi Calm Calm - N/A   Light Drizzle
5:30 PM 46.4 °F - 44.6 °F 93% 30.30 in 1.9 mi Calm Calm - N/A   Light Drizzle
6:00 PM 46.4 °F - 44.6 °F 93% 30.30 in 1.9 mi Calm Calm - N/A   Mostly Cloudy
6:30 PM 46.4 °F - 44.6 °F 93% 30.30 in 1.9 mi Calm Calm - N/A   Mostly Cloudy
7:00 PM 46.4 °F - 44.6 °F 93% 30.30 in 1.9 mi Calm Calm - N/A   Mostly Cloudy
7:30 PM 46.4 °F - 44.6 °F 93% 30.27 in 1.9 mi Calm Calm - N/A   Mostly Cloudy
8:00 PM 46.4 °F - 44.6 °F 93% 30.27 in 3.1 mi Calm Calm - N/A   Mostly Cloudy
8:30 PM 46.4 °F - 44.6 °F 93% 30.27 in 3.1 mi Calm Calm - N/A   Mostly Cloudy
9:00 PM 46.4 °F - 44.6 °F 93% 30.27 in 3.1 mi Calm Calm - N/A   Mostly Cloudy
9:30 PM 46.4 °F - 44.6 °F 93% 30.27 in 3.1 mi Calm Calm - N/A   Mostly Cloudy
10:00 PM 46.4 °F - 44.6 °F 93% 30.27 in 3.1 mi Calm Calm - N/A   Mostly Cloudy
10:30 PM 46.4 °F - 44.6 °F 93% 30.27 in 3.1 mi Calm Calm - N/A   Mostly Cloudy
11:00 PM 46.4 °F - 44.6 °F 93% 30.27 in 3.1 mi Calm Calm - N/A   Mostly Cloudy
11:30 PM 46.4 °F - 44.6 °F 93% 30.27 in 3.1 mi Calm Calm - N/A   Mostly Cloudy